Location: Huntsville
(34.7300°N, 86.5860°W)
Time: 01:20:34
(UTC-05:00)

X-37B - Visible Passes

Search period start: 26 October 2021 00:00
Search period end: 05 November 2021 00:00
Orbit: 445 x 447 km, 45.0° (Epoch: 24 October)

Date Brightness Start Highest point End Pass type
(mag) Time Alt. Az. Time Alt. Az. Time Alt. Az.
26 Oct 0.7 19:23:44 10° NW 19:27:17 80° NNE 19:27:44 64° E visible
27 Oct 0.9 18:44:12 10° NW 18:47:43 61° NNE 18:50:29 15° ESE visible
27 Oct 3.9 20:22:59 10° W 20:24:00 14° WSW 20:24:00 14° WSW visible
28 Oct 3.0 19:43:03 10° W 19:45:54 23° SW 19:46:57 20° SSW visible
29 Oct 2.7 19:03:16 10° WNW 19:06:25 30° SW 19:09:34 10° SSE visible
30 Oct 2.2 18:23:34 10° WNW 18:26:55 41° SW 18:30:15 10° SSE visible
